Showing default

YURI (BSE), 10792

Orbit data source: Space-Track

YURI (BSE), 10792 is a payload satellite owned by NASDA (JP) in GEO that was launched on Fri, 07 Apr 1978 UTC via a DELTA 2914 launch vehicle from the Air Force Eastern Test Range (AFETR). Payload-class satellites include a variety of spacecraft equipped with specific instruments for various scientific and technological missions. These include communications satellites like Starlink; space stations such as the ISS; scientific satellites like the Hubble; Earth observation satellites from companies like Planet Labs, Umbra, and HawkEye 360; GPS; miniature CubeSats for education and research; and military/defense satellites.

Not visible in the next 10 days
Identifier
10792, 1978-039A
Orbit
GEO
Last TLE update
15 hours ago
Origin
Manufacturer
GEVF/TOSH
Mission
Non-operational Civil Communications
Bus & Motor
BS, STAR 27
Mass
678 kg wet, ~295 kg dry
Launch date (UTC)
1978-04-07 (47 years ago)
Launch vehicle
DELTA 2914
Launch site
Air Force Eastern Test Range (AFETR)
Object type
Payload
Rocket body
Debris
Shape & HBR
Hex Poly + 2 Pan, 1.5 m
Radar Cross Section
2.497 m², Large (>1 m²)

Expand to show TLE details & history

TLE from 15 hours ago
0 YURI (BSE)
1 10792U 78039A   25198.72162351 -.00000334  00000-0  00000-0 0  9999
2 10792   6.3066 287.4866 0016702 301.3087  74.9518  1.00276730115413
Epoch: 2025-07-17T17:19Z
TLE epoch observation values (Epoch: 2025-07-17T17:19:08.271Z)
Latitude
1.76562°
Longitude
108.26765°
Altitude
35,766.148 km
Speed
3.076 km/s
True Right ascension
20h 15m 20s
True Declination
1° 45' 50"
Sunlit
Object was in daylight at epoch
Visualization orbit readout
Latitude
-5.23898°
Longitude
-31.88728°
Altitude
35,756.042 km
Speed
3.077 km/s
Apparent Right ascension
10h 41m 28s
Apparent Declination
-9° 43' 55"
Sunlit
Object is in daylight
Visualization observer readout
Local Sidereal Time
20:42:49
Azimuth
310.724° NW
Elevation
-49.938°
Doppler factor
1
Orbital elements
Apogee altitude
35,856.683 km
Perigee altitude
35,715.837 km
Semi-major axis
42,164.397 km
Eccentricity
0.00167
Inclination
6.3066°
RAAN
287.4866°
Arg. of periapsis
301.3087°
True anomaly
75.13673°
Mean anomaly
74.9518°
Eccentric anomaly
75.04425°
Mean motion
0.25068 °/min
Orbital period
1,436.08 mins
BSTAR
0
Loading maneuver chart data...
Loading SW <> Apogee altitude chart data...
Loading historical data...
Loading historical data...
Loading historical data...
Loading historical data...
Loading historical data...
Loading historical data...
Loading historical data...
Other satellites on launch #39 in the year 1978 (1978-04-07 UTC)
|